This is the latest recevied weather packets stored in our database for station/object N8JE-13. If no packets are shown the sender has not sent any weather packets the latest 1 day(s).
| Time | Temp. | Humidity | Pressure | Rain* | Wind** | Luminosity | Snow |
|---|---|---|---|---|---|---|---|
| 1778030152 | 12.22° C | 91% | 1006.9 hPa | 3.81 mm | 2.24 m/s, 346° | - | - |
| 1778029851 | 13.33° C | 90% | 1006.8 hPa | 3.56 mm | 3.13 m/s, 12° | - | - |
| 1778029551 | 13.89° C | 92% | 1006.4 hPa | 3.81 mm | 1.34 m/s, 12° | - | - |
| 1778029251 | 15° C | 93% | 1006.6 hPa | 3.81 mm | 2.24 m/s, 306° | - | - |
| 1778028952 | 15° C | 94% | 1006.4 hPa | 4.06 mm | 0.89 m/s, 255° | - | - |
| 1778028652 | 15° C | 94% | 1006.3 hPa | 3.81 mm | 0 m/s | - | - |
| 1778028352 | 15° C | 94% | 1006.4 hPa | 3.81 mm | 1.34 m/s, 267° | - | - |
| 1778028052 | 15° C | 94% | 1006.3 hPa | 3.56 mm | 3.13 m/s, 234° | - | - |
| 1778027752 | 15° C | 94% | 1006.2 hPa | 3.3 mm | 0.89 m/s, 244° | - | - |
| 1778027452 | 15° C | 94% | 1006.1 hPa | 3.3 mm | 1.34 m/s, 229° | - | - |
| 1778027152 | 15° C | 94% | 1006 hPa | 3.3 mm | 1.34 m/s, 216° | - | - |
| 1778026852 | 15° C | 94% | 1006 hPa | 3.56 mm | 1.34 m/s, 217° | - | - |
| 1778026552 | 15° C | 94% | 1005.9 hPa | 3.3 mm | 2.68 m/s, 219° | - | - |
| 1778026252 | 15° C | 94% | 1005.9 hPa | 3.3 mm | 0.89 m/s, 224° | - | - |
| 1778025952 | 15° C | 94% | 1005.9 hPa | 3.05 mm | 2.24 m/s, 240° | - | - |
| 1778025652 | 15° C | 94% | 1005.9 hPa | 3.3 mm | 1.34 m/s, 219° | - | - |
| 1778025351 | 15° C | 94% | 1005.8 hPa | 3.81 mm | 0.89 m/s, 242° | - | - |
| 1778025051 | 15° C | 94% | 1005.9 hPa | 4.57 mm | 0.45 m/s, 231° | - | - |
| 1778024751 | 15° C | 94% | 1005.9 hPa | 4.57 mm | 0.45 m/s, 228° | - | - |
| 1778024452 | 15° C | 94% | 1005.9 hPa | 4.83 mm | 0.45 m/s, 234° | - | - |
| 1778024151 | 15° C | 94% | 1005.8 hPa | 5.33 mm | 0.89 m/s, 231° | - | - |
| 1778023851 | 15° C | 94% | 1005.9 hPa | 5.84 mm | 2.24 m/s, 250° | - | - |
| 1778023551 | 15° C | 94% | 1006.1 hPa | 5.59 mm | 3.13 m/s, 223° | - | - |
| 1778023251 | 15° C | 94% | 1006.1 hPa | 5.59 mm | 3.58 m/s, 231° | - | - |
| 1778022951 | 15° C | 94% | 1006.2 hPa | 5.59 mm | 0.89 m/s, 223° | - | - |
* Rain latest hour (hover to see other rain measurements)
** Current wind speed in m/s (hover to see current wind gust speed)